Phineas Banning — WCT8646 — position and weather

sailwx.info

Track history (hours):
 
Tides and Currents Weather Stations Pressure Air Temp Water Temp Dewpoint Dewpoint Depression Visibility Wind Speed Wind Dir Waves Ship Positions

Phineas Banning

Owner: LOS ANGELES, PORT OF, SAN PEDRO, CA. More information available from US FCC via Universal Licensing System and Coast Guard Vessel Documentation Center.

Last reported at 2018-Feb-22 21:59 UTC. Time now 2018-Feb-22 22:09 UTC.
Position N 33°43' W 118°16'.

Length 13 m.

Type: Pilot. MMSI: 367044560.

Date/timePositionNaut miles runAvg speedWind from/ knotsBaromVisibWave heightAir tempDewpointWater temp
2018-Feb-22 21:59N 33°43' W 118°16'0 0.0
2018-Feb-22 21:30N 33°43' W 118°16'0 0.0
2018-Feb-22 21:00N 33°43' W 118°16'0 0.0
2018-Feb-22 20:30N 33°43' W 118°16'0 0.0
2018-Feb-22 20:00N 33°43' W 118°16'0 0.0
2018-Feb-22 19:30N 33°43' W 118°16'0 0.0
2018-Feb-22 19:00N 33°43' W 118°16'1 1.1
2018-Feb-22 18:30N 33°44' W 118°17'1 1.1
2018-Feb-22 18:00N 33°43' W 118°16'0 0.0
2018-Feb-22 17:30N 33°43' W 118°16'0 0.0
2018-Feb-22 16:48N 33°43' W 118°16'0 0.0
2018-Feb-22 16:30N 33°43' W 118°16'0 0.0
2018-Feb-22 16:00N 33°43' W 118°16'0 0.0
2018-Feb-22 15:30N 33°43' W 118°16'1 1.4
2018-Feb-22 15:00N 33°43' W 118°16'1 1.4
2018-Feb-22 14:28N 33°43' W 118°16'0 0.0
2018-Feb-22 13:32N 33°43' W 118°16'010.7
2018-Feb-22 13:30N 33°43' W 118°16'1 2.5
2018-Feb-22 13:00N 33°42' W 118°15'1 1.8
2018-Feb-22 12:13N 33°43' W 118°16'2 4.4
2018-Feb-22 11:48N 33°42' W 118°15'2 4.9
2018-Feb-22 11:23N 33°43' W 118°16'0 0.0
2018-Feb-22 10:59N 33°43' W 118°16'0 0.0
2018-Feb-22 09:05N 33°43' W 118°16'0 0.0
2018-Feb-22 04:12N 33°43' W 118°16'0 0.0
2018-Feb-22 02:01N 33°43' W 118°16'0 9.3
2018-Feb-22 01:59N 33°43' W 118°16'0 0.8
2018-Feb-22 01:28N 33°43' W 118°16'0 0.0
2018-Feb-22 01:00N 33°43' W 118°16'0 0.0
2018-Feb-22 00:30N 33°43' W 118°16'0 0.0
2018-Feb-22 00:00N 33°43' W 118°16'0 0.0
2018-Feb-21 23:30N 33°43' W 118°16'0 0.0
2018-Feb-21 23:00N 33°43' W 118°16'0 0.0
2018-Feb-21 22:30N 33°43' W 118°16'2 4.2
2018-Feb-21 22:00N 33°42' W 118°15'2 4.2
2018-Feb-21 21:31N 33°43' W 118°16'0 0.0
2018-Feb-21 21:00N 33°43' W 118°16'510.7
2018-Feb-21 20:30N 33°38' W 118°14'510.3
2018-Feb-21 19:59N 33°43' W 118°16'0 0.0
2018-Feb-21 19:30N 33°43' W 118°16'0 0.0
2018-Feb-21 18:58N 33°43' W 118°16'0 0.0
2018-Feb-21 18:30N 33°43' W 118°16'0 0.0
2018-Feb-21 18:00N 33°43' W 118°16'0 0.0
2018-Feb-21 17:30N 33°43' W 118°16'0 0.0
2018-Feb-21 17:00N 33°43' W 118°16'0 0.0
2018-Feb-21 16:30N 33°43' W 118°16'0 0.0
2018-Feb-21 16:00N 33°43' W 118°16'0 0.0
2018-Feb-21 15:30N 33°43' W 118°16'0 0.0
2018-Feb-21 15:00N 33°43' W 118°16'0 0.0
2018-Feb-21 14:30N 33°43' W 118°16'1 2.1
2018-Feb-21 14:00N 33°43' W 118°15'0 0.0
2018-Feb-21 13:30N 33°43' W 118°15'1 0.0
2018-Feb-21 02:20N 33°43' W 118°16'1 2.7
2018-Feb-21 02:00N 33°42' W 118°15'1 2.3
2018-Feb-21 01:30N 33°43' W 118°16'1 2.0
2018-Feb-21 01:00N 33°43' W 118°15'1 2.5
2018-Feb-21 00:30N 33°43' W 118°16'1 1.3
2018-Feb-21 00:00N 33°43' W 118°16'1 1.3
2018-Feb-20 23:30N 33°43' W 118°16'0 0.0
2018-Feb-20 23:00N 33°43' W 118°16'3 6.0
2018-Feb-20 22:31N 33°41' W 118°14'1 1.5
2018-Feb-20 22:01N 33°40' W 118°14'4 7.3
2018-Feb-20 21:30N 33°43' W 118°16'0 0.0
2018-Feb-20 21:00N 33°43' W 118°16'0 0.0
2018-Feb-20 20:29N 33°43' W 118°16'0 0.0
2018-Feb-20 20:00N 33°43' W 118°16'0 0.0
2018-Feb-20 19:30N 33°43' W 118°16'0 0.0
2018-Feb-20 19:00N 33°43' W 118°16'0 0.0
2018-Feb-20 18:30N 33°43' W 118°16'0 0.0
2018-Feb-20 18:00N 33°43' W 118°16'0 0.0
2018-Feb-20 17:30N 33°43' W 118°16'0 0.0
2018-Feb-20 17:00N 33°43' W 118°16'0 0.0
2018-Feb-20 16:30N 33°43' W 118°16'0 0.0
2018-Feb-20 16:00N 33°43' W 118°16'0 0.0
2018-Feb-20 15:30N 33°43' W 118°16'0 0.0
2018-Feb-20 15:00N 33°43' W 118°16'0 0.0
2018-Feb-20 14:30N 33°43' W 118°16'0 0.0
2018-Feb-20 13:53N 33°43' W 118°16'0 0.0
2018-Feb-20 13:30N 33°43' W 118°16'0 0.0
2018-Feb-20 13:00N 33°43' W 118°16'0 0.0
2018-Feb-20 12:22N 33°43' W 118°16'0 0.0
2018-Feb-20 02:11N 33°43' W 118°16'0 0.0
2018-Feb-20 01:48N 33°43' W 118°16'0 0.0
2018-Feb-20 01:30N 33°43' W 118°16'0 0.0
2018-Feb-20 01:00N 33°43' W 118°16'0 0.0
2018-Feb-20 00:30N 33°43' W 118°16'0 0.0
2018-Feb-20 00:00N 33°43' W 118°16'0 0.0
2018-Feb-19 23:30N 33°43' W 118°16'0 0.0
2018-Feb-19 23:00N 33°43' W 118°16'0 0.0
2018-Feb-19 22:30N 33°43' W 118°16'0 0.0
2018-Feb-19 22:00N 33°43' W 118°16'0 0.0
2018-Feb-19 21:30N 33°43' W 118°16'0 0.0
2018-Feb-19 21:00N 33°43' W 118°16'0 0.0
2018-Feb-19 20:30N 33°43' W 118°16'0 0.0
2018-Feb-19 20:00N 33°43' W 118°16'0 0.0
2018-Feb-19 19:30N 33°43' W 118°16'0 0.0
2018-Feb-19 19:00N 33°43' W 118°16'0 0.0
2018-Feb-19 18:30N 33°43' W 118°16'0 0.0
2018-Feb-19 18:00N 33°43' W 118°16'0 0.0
2018-Feb-19 17:30N 33°43' W 118°16'0 0.0
2018-Feb-19 17:00N 33°43' W 118°16'0 0.0
2018-Feb-19 16:30N 33°43' W 118°16'0 0.0
2018-Feb-19 16:00N 33°43' W 118°16'0 0.0
2018-Feb-19 15:30N 33°43' W 118°16'0 0.0
2018-Feb-19 15:00N 33°43' W 118°16'0 0.0
2018-Feb-19 14:30N 33°43' W 118°16'0 0.0
2018-Feb-19 13:54N 33°43' W 118°16'0 0.0
2018-Feb-19 12:50N 33°43' W 118°16'0 0.0
2018-Feb-19 12:26N 33°43' W 118°16'0 0.0
2018-Feb-19 11:22N 33°43' W 118°16'0 0.0
2018-Feb-19 10:49N 33°43' W 118°16'0 0.0
2018-Feb-19 10:22N 33°43' W 118°16'0 0.0
2018-Feb-19 09:53N 33°43' W 118°16'0 0.0
2018-Feb-19 09:28N 33°43' W 118°16'0 0.0
2018-Feb-19 08:58N 33°43' W 118°16'0 0.0
2018-Feb-19 08:21N 33°43' W 118°16'0 0.0
2018-Feb-19 07:31N 33°43' W 118°16'0 0.0
2018-Feb-19 07:22N 33°43' W 118°16'0 0.0
2018-Feb-19 05:52N 33°43' W 118°16'0 0.0
2018-Feb-19 05:25N 33°43' W 118°16'0 0.0
2018-Feb-19 04:57N 33°43' W 118°16'0 0.0
2018-Feb-19 04:29N 33°43' W 118°16'0 0.0
2018-Feb-19 03:50N 33°43' W 118°16'0 0.0
2018-Feb-19 03:28N 33°43' W 118°16'0 0.0
2018-Feb-19 02:29N 33°43' W 118°16'0 0.0
2018-Feb-19 01:57N 33°43' W 118°16'0 0.0
2018-Feb-19 01:30N 33°43' W 118°16'0 0.0
2018-Feb-19 01:00N 33°43' W 118°16'0 0.0
2018-Feb-19 00:30N 33°43' W 118°16'0 0.0
2018-Feb-19 00:00N 33°43' W 118°16'0 0.0
2018-Feb-18 23:30N 33°43' W 118°16'0 0.0
2018-Feb-18 23:00N 33°43' W 118°16'0 0.0
2018-Feb-18 22:30N 33°43' W 118°16'0 0.0
2018-Feb-18 22:00N 33°43' W 118°16'0 0.0
2018-Feb-18 21:30N 33°43' W 118°16'0 0.0
2018-Feb-18 21:00N 33°43' W 118°16'0 0.0
2018-Feb-18 20:30N 33°43' W 118°16'0 0.0
2018-Feb-18 20:00N 33°43' W 118°16'0 0.0
2018-Feb-18 19:30N 33°43' W 118°16'0 0.0
2018-Feb-18 19:00N 33°43' W 118°16'0 0.0
2018-Feb-18 18:30N 33°43' W 118°16'0 0.0
2018-Feb-18 18:00N 33°43' W 118°16'0 0.0
2018-Feb-18 17:30N 33°43' W 118°16'0 0.0
2018-Feb-18 17:00N 33°43' W 118°16'0 0.0
2018-Feb-18 16:30N 33°43' W 118°16'0 0.0
2018-Feb-18 16:00N 33°43' W 118°16'0 0.0
2018-Feb-18 15:30N 33°43' W 118°16'0 0.0
2018-Feb-18 15:00N 33°43' W 118°16'0 0.0
2018-Feb-18 14:30N 33°43' W 118°16'0 0.0
2018-Feb-18 14:00N 33°43' W 118°16'0 0.0
2018-Feb-18 13:26N 33°43' W 118°16'0 0.0
2018-Feb-18 13:00N 33°43' W 118°16'0 0.0
2018-Feb-18 12:26N 33°43' W 118°16'0 0.0
2018-Feb-18 11:57N 33°43' W 118°16'0 0.0
2018-Feb-18 11:28N 33°43' W 118°16'0 0.0
2018-Feb-18 10:46N 33°43' W 118°16'0 0.0
2018-Feb-18 10:10N 33°43' W 118°16'0 0.0
2018-Feb-18 09:54N 33°43' W 118°16'0 0.0
2018-Feb-18 09:19N 33°43' W 118°16'0 0.0
2018-Feb-18 08:47N 33°43' W 118°16'0 0.0
2018-Feb-18 08:19N 33°43' W 118°16'0 0.0
2018-Feb-18 08:00N 33°43' W 118°16'0 0.0
2018-Feb-18 06:01N 33°43' W 118°16'0 0.0
2018-Feb-18 05:42N 33°43' W 118°16'0 0.0
2018-Feb-18 05:20N 33°43' W 118°16'0 0.0
2018-Feb-18 04:15N 33°43' W 118°16'0 0.0
2018-Feb-18 03:58N 33°43' W 118°16'0 0.0
2018-Feb-18 01:52N 33°43' W 118°16'0 0.0
2018-Feb-18 01:30N 33°43' W 118°16'0 0.0
2018-Feb-18 01:00N 33°43' W 118°16'0 0.0
2018-Feb-18 00:30N 33°43' W 118°16'0 0.0
2018-Feb-17 23:59N 33°43' W 118°16'0 0.0
2018-Feb-17 23:30N 33°43' W 118°16'0 0.0
2018-Feb-17 23:00N 33°43' W 118°16'0 0.0
2018-Feb-17 22:30N 33°43' W 118°16'0 0.0
2018-Feb-17 22:00N 33°43' W 118°16'0 0.0
2018-Feb-17 21:30N 33°43' W 118°16'0 0.0
2018-Feb-17 21:00N 33°43' W 118°16'0 0.0
2018-Feb-17 20:30N 33°43' W 118°16'0 0.0
2018-Feb-17 20:00N 33°43' W 118°16'0 0.0
2018-Feb-17 19:30N 33°43' W 118°16'0 0.0
2018-Feb-17 19:00N 33°43' W 118°16'0 0.0
2018-Feb-17 18:30N 33°43' W 118°16'0 0.0
2018-Feb-17 18:00N 33°43' W 118°16'0 0.0
2018-Feb-17 17:30N 33°43' W 118°16'0 0.0
2018-Feb-17 17:00N 33°43' W 118°16'0 0.0
2018-Feb-17 16:30N 33°43' W 118°16'0 0.0
2018-Feb-17 16:00N 33°43' W 118°16'0 0.0
2018-Feb-17 15:30N 33°43' W 118°16'0 0.0
2018-Feb-17 15:00N 33°43' W 118°16'0 0.0
2018-Feb-17 14:30N 33°43' W 118°16'0 0.0
2018-Feb-17 13:51N 33°43' W 118°16'0 0.0
2018-Feb-17 13:22N 33°43' W 118°16'0 0.0
2018-Feb-17 12:58N 33°43' W 118°16'0 0.0
2018-Feb-17 12:18N 33°43' W 118°16'0 0.0
2018-Feb-17 11:52N 33°43' W 118°16'0 0.0
2018-Feb-17 11:30N 33°43' W 118°16'0 0.0
2018-Feb-17 10:45N 33°43' W 118°16'0 0.0
2018-Feb-17 10:26N 33°43' W 118°16'0 0.0
2018-Feb-17 09:47N 33°43' W 118°16'0 0.0
2018-Feb-17 09:30N 33°43' W 118°16'0 0.0
2018-Feb-17 09:00N 33°43' W 118°16'0 0.0
2018-Feb-17 05:50N 33°43' W 118°16'0 0.0
2018-Feb-17 01:50N 33°43' W 118°16'0 0.0
2018-Feb-17 01:30N 33°43' W 118°16'0 0.0
2018-Feb-17 01:00N 33°43' W 118°16'0 0.0
2018-Feb-17 00:30N 33°43' W 118°16'0 0.0
2018-Feb-17 00:00N 33°43' W 118°16'0 0.0
2018-Feb-16 23:30N 33°43' W 118°16'0 0.0
2018-Feb-16 23:00N 33°43' W 118°16'0 0.0
2018-Feb-16 22:30N 33°43' W 118°16'0 0.0
2018-Feb-16 22:00N 33°43' W 118°16'0 0.0
2018-Feb-16 21:30N 33°43' W 118°16'0 0.0
2018-Feb-16 21:00N 33°43' W 118°16'0 0.0
2018-Feb-16 20:30N 33°43' W 118°16'0 0.0
2018-Feb-16 20:00N 33°43' W 118°16'0 0.0
2018-Feb-16 19:30N 33°43' W 118°16'0 0.0
2018-Feb-16 19:00N 33°43' W 118°16'0 0.0
2018-Feb-16 18:30N 33°43' W 118°16'0 0.0
2018-Feb-16 18:00N 33°43' W 118°16'0 0.0
2018-Feb-16 17:30N 33°43' W 118°16'0 0.0
2018-Feb-16 17:00N 33°43' W 118°16'0 0.0
2018-Feb-16 16:30N 33°43' W 118°16'0 0.0
2018-Feb-16 16:00N 33°43' W 118°16'0 0.0
2018-Feb-16 15:30N 33°43' W 118°16'0 0.0
2018-Feb-16 15:00N 33°43' W 118°16'0 0.0
2018-Feb-16 14:30N 33°43' W 118°16'0 0.0
2018-Feb-16 13:41N 33°43' W 118°16'0 0.0
2018-Feb-16 06:43N 33°43' W 118°16'0 0.0
2018-Feb-16 06:15N 33°43' W 118°16'0 0.0
2018-Feb-16 05:54N 33°43' W 118°16'0 0.0
2018-Feb-16 05:30N 33°43' W 118°16'0 0.0
2018-Feb-16 04:52N 33°43' W 118°16'0 0.0
2018-Feb-16 04:30N 33°43' W 118°16'0 0.0
2018-Feb-16 04:00N 33°43' W 118°16'0 0.0
2018-Feb-16 03:12N 33°43' W 118°16'0 0.0
2018-Feb-16 02:59N 33°43' W 118°16'0 0.0
2018-Feb-16 02:27N 33°43' W 118°16'0 0.0
2018-Feb-16 01:48N 33°43' W 118°16'0 0.0
2018-Feb-16 01:30N 33°43' W 118°16'0 0.0
2018-Feb-16 01:00N 33°43' W 118°16'0 0.0
2018-Feb-16 00:30N 33°43' W 118°16'0 0.0
2018-Feb-16 00:00N 33°43' W 118°16'0 0.0
2018-Feb-15 23:30N 33°43' W 118°16'0 0.0
2018-Feb-15 23:00N 33°43' W 118°16'0 0.0
2018-Feb-15 22:30N 33°43' W 118°16'0 0.0
2018-Feb-15 22:00N 33°43' W 118°16'0 0.0
2018-Feb-15 21:30N 33°43' W 118°16'0 0.0
2018-Feb-15 21:00N 33°43' W 118°16'0 0.0
2018-Feb-15 20:30N 33°43' W 118°16'0 0.0
2018-Feb-15 20:00N 33°43' W 118°16'0 0.0
2018-Feb-15 19:30N 33°43' W 118°16'0 0.0
2018-Feb-15 19:00N 33°43' W 118°16'0 0.0
2018-Feb-15 18:28N 33°43' W 118°16'0 0.0
2018-Feb-15 18:00N 33°43' W 118°16'0 0.0
2018-Feb-15 17:30N 33°43' W 118°16'0 0.0
2018-Feb-15 17:00N 33°43' W 118°16'0 0.0
2018-Feb-15 16:30N 33°43' W 118°16'0 0.0
2018-Feb-15 15:59N 33°43' W 118°16'0 0.0
2018-Feb-15 15:30N 33°43' W 118°16'0 0.0
2018-Feb-15 15:00N 33°43' W 118°16'0 0.0
2018-Feb-15 14:30N 33°43' W 118°16'0 0.0
2018-Feb-15 14:00N 33°43' W 118°16'0 0.0
2018-Feb-15 13:30N 33°43' W 118°16'0 0.0
2018-Feb-15 12:56N 33°43' W 118°16'0 0.0
2018-Feb-15 12:21N 33°43' W 118°16'0 0.0
2018-Feb-15 12:00N 33°43' W 118°16'0 0.0
2018-Feb-15 11:28N 33°43' W 118°16'0 0.0
2018-Feb-15 10:58N 33°43' W 118°16'0 0.0
2018-Feb-15 09:45N 33°43' W 118°16'0 0.0
2018-Feb-15 09:27N 33°43' W 118°16'0 0.0
2018-Feb-15 08:57N 33°43' W 118°16'0 0.0
2018-Feb-15 08:30N 33°43' W 118°16'0 0.0
2018-Feb-15 07:51N 33°43' W 118°16'0 0.0
2018-Feb-15 07:30N 33°43' W 118°16'0 0.0
2018-Feb-15 06:03N 33°43' W 118°16'0 0.1
2018-Feb-15 06:00N 33°43' W 118°16'0 0.0
2018-Feb-15 05:29N 33°43' W 118°16'0 0.0
2018-Feb-15 04:58N 33°43' W 118°16'0 0.0
2018-Feb-15 04:30N 33°43' W 118°16'0 0.0
2018-Feb-15 04:00N 33°43' W 118°16'0 0.0
2018-Feb-15 02:56N 33°43' W 118°16'0 0.0
2018-Feb-15 02:07N 33°43' W 118°16'0 0.0
2018-Feb-15 01:48N 33°43' W 118°16'0 0.0
2018-Feb-15 01:30N 33°43' W 118°16'0 0.0
2018-Feb-15 01:00N 33°43' W 118°16'0 0.0
2018-Feb-15 00:30N 33°43' W 118°16'0 0.0
2018-Feb-15 00:00N 33°43' W 118°16'0 0.0
2018-Feb-14 23:30N 33°43' W 118°16'0 0.0
2018-Feb-14 23:00N 33°43' W 118°16'0 0.0
2018-Feb-14 22:30N 33°43' W 118°16'0 0.0
2018-Feb-14 22:00N 33°43' W 118°16'0 0.0
2018-Feb-14 21:30N 33°43' W 118°16'0 0.0
2018-Feb-14 21:00N 33°43' W 118°16'0 0.0
2018-Feb-14 20:30N 33°43' W 118°16'0 0.0
2018-Feb-14 20:00N 33°43' W 118°16'0 0.0
2018-Feb-14 19:30N 33°43' W 118°16'0 0.0
2018-Feb-14 19:00N 33°43' W 118°16'0 0.0
2018-Feb-14 18:30N 33°43' W 118°16'0 0.0
2018-Feb-14 18:00N 33°43' W 118°16'0 0.0
2018-Feb-14 17:30N 33°43' W 118°16'0 0.0
2018-Feb-14 17:00N 33°43' W 118°16'0 0.0
2018-Feb-14 16:30N 33°43' W 118°16'0 0.0
2018-Feb-14 16:00N 33°43' W 118°16'0 0.0
2018-Feb-14 15:30N 33°43' W 118°16'0 0.0
2018-Feb-14 15:00N 33°43' W 118°16'0 0.0
2018-Feb-14 14:30N 33°43' W 118°16'0 0.0
2018-Feb-14 13:57N 33°43' W 118°16'0 0.0
2018-Feb-14 13:30N 33°43' W 118°16'0 0.0
2018-Feb-14 13:00N 33°43' W 118°16'0 0.0
2018-Feb-14 12:20N 33°43' W 118°16'0 0.0
2018-Feb-14 11:57N 33°43' W 118°16'0 0.0
2018-Feb-14 11:30N 33°43' W 118°16'0 0.0
2018-Feb-14 10:47N 33°43' W 118°16'0 0.0
2018-Feb-14 10:28N 33°43' W 118°16'0 0.0
2018-Feb-14 09:58N 33°43' W 118°16'0 0.0
2018-Feb-14 06:57N 33°43' W 118°16'0 0.0
2018-Feb-14 05:31N 33°43' W 118°16'0 0.0
2018-Feb-14 05:29N 33°43' W 118°16'0 0.0
2018-Feb-14 04:47N 33°43' W 118°16'0 0.0
2018-Feb-14 04:22N 33°43' W 118°16'0 0.0
2018-Feb-14 03:56N 33°43' W 118°16'0 0.0
2018-Feb-14 03:28N 33°43' W 118°16'0 0.0
2018-Feb-14 02:27N 33°43' W 118°16'0 0.0
2018-Feb-14 02:00N 33°43' W 118°16'0 0.0
2018-Feb-14 01:30N 33°43' W 118°16'0 0.0
2018-Feb-14 01:00N 33°43' W 118°16'0 0.0
2018-Feb-14 00:30N 33°43' W 118°16'0 0.0
2018-Feb-14 00:00N 33°43' W 118°16'0 0.0
2018-Feb-13 23:30N 33°43' W 118°16'3 5.1
2018-Feb-13 23:00N 33°41' W 118°14'3 5.1
2018-Feb-13 22:30N 33°39' W 118°13'5 9.4
2018-Feb-13 22:00N 33°43' W 118°16'1 1.1
2018-Feb-13 21:30N 33°43' W 118°16'0 0.0
2018-Feb-13 21:00N 33°43' W 118°16'0 0.0
2018-Feb-13 20:29N 33°43' W 118°16'0 0.0
2018-Feb-13 20:00N 33°43' W 118°16'0 0.0
2018-Feb-13 19:30N 33°43' W 118°16'0 0.0
2018-Feb-13 19:00N 33°43' W 118°16'0 0.0
2018-Feb-13 18:30N 33°43' W 118°16'0 0.0
2018-Feb-13 18:00N 33°43' W 118°16'0 0.0
2018-Feb-13 17:30N 33°43' W 118°16'0 0.0
2018-Feb-13 17:00N 33°43' W 118°16'0 0.0
2018-Feb-13 16:30N 33°43' W 118°16'0 0.0
2018-Feb-13 16:01N 33°43' W 118°16'0 0.0
2018-Feb-13 15:27N 33°43' W 118°16'0 0.0
2018-Feb-13 15:01N 33°43' W 118°16'0 0.0
2018-Feb-13 14:27N 33°43' W 118°16'0 0.0
2018-Feb-13 14:00N 33°43' W 118°16'0 0.0
2018-Feb-13 13:29N 33°43' W 118°16'0 0.0
2018-Feb-13 13:00N 33°43' W 118°16'0 0.0
2018-Feb-13 12:28N 33°43' W 118°16'0 0.0
2018-Feb-13 12:01N 33°43' W 118°16'0 0.0
2018-Feb-13 11:30N 33°43' W 118°16'0 0.0
2018-Feb-13 11:00N 33°43' W 118°16'0 0.0
2018-Feb-13 10:30N 33°43' W 118°16'0 0.0
2018-Feb-13 10:00N 33°43' W 118°16'0 0.0
2018-Feb-13 09:28N 33°43' W 118°16'0 0.0
2018-Feb-13 08:01N 33°43' W 118°16'0 0.0
2018-Feb-13 07:58N 33°43' W 118°16'0 0.0
2018-Feb-13 07:09N 33°43' W 118°16'0 0.0
2018-Feb-13 07:01N 33°43' W 118°16'0 0.0
2018-Feb-13 06:30N 33°43' W 118°16'0 0.0
2018-Feb-13 06:00N 33°43' W 118°16'0 0.0
2018-Feb-13 05:30N 33°43' W 118°16'0 0.0
2018-Feb-13 04:59N 33°43' W 118°16'0 0.0
2018-Feb-13 04:30N 33°43' W 118°16'0 0.0
2018-Feb-13 03:59N 33°43' W 118°16'0 0.0
2018-Feb-13 03:29N 33°43' W 118°16'0 0.0
2018-Feb-13 02:52N 33°43' W 118°16'0 0.0
2018-Feb-13 02:31N 33°43' W 118°16'0 0.0
2018-Feb-13 01:57N 33°43' W 118°16'0 0.0
2018-Feb-13 01:29N 33°43' W 118°16'0 0.0
2018-Feb-13 01:00N 33°43' W 118°16'0 0.0
2018-Feb-13 00:30N 33°43' W 118°16'0 0.0
2018-Feb-13 00:01N 33°43' W 118°16'1 3.0
2018-Feb-12 23:30N 33°42' W 118°15'1 3.0
2018-Feb-12 23:00N 33°43' W 118°16'3 5.4
2018-Feb-12 22:23N 33°40' W 118°14'2 4.6
2018-Feb-12 22:00N 33°42' W 118°15'  
Track history (hours):
 
Tides and Currents Weather Stations Pressure Air Temp Water Temp Dewpoint Dewpoint Depression Visibility Wind Speed Wind Dir Waves Ship Positions

Phineas Banning

Owner: LOS ANGELES, PORT OF, SAN PEDRO, CA. More information available from US FCC via Universal Licensing System and Coast Guard Vessel Documentation Center.

Last reported at 2018-Feb-22 21:59 UTC. Time now 2018-Feb-22 22:09 UTC.
Position N 33°43' W 118°16'.

Length 13 m.

Type: Pilot. MMSI: 367044560.

Date/timePositionNaut miles runAvg speedWind from/ knotsBaromVisibWave heightAir tempDewpointWater temp
2018-Feb-22 21:59N 33°43' W 118°16'0 0.0
2018-Feb-22 21:30N 33°43' W 118°16'0 0.0
2018-Feb-22 21:00N 33°43' W 118°16'0 0.0
2018-Feb-22 20:30N 33°43' W 118°16'0 0.0
2018-Feb-22 20:00N 33°43' W 118°16'0 0.0
2018-Feb-22 19:30N 33°43' W 118°16'0 0.0
2018-Feb-22 19:00N 33°43' W 118°16'1 1.1
2018-Feb-22 18:30N 33°44' W 118°17'1 1.1
2018-Feb-22 18:00N 33°43' W 118°16'0 0.0
2018-Feb-22 17:30N 33°43' W 118°16'0 0.0
2018-Feb-22 16:48N 33°43' W 118°16'0 0.0
2018-Feb-22 16:30N 33°43' W 118°16'0 0.0
2018-Feb-22 16:00N 33°43' W 118°16'0 0.0
2018-Feb-22 15:30N 33°43' W 118°16'1 1.4
2018-Feb-22 15:00N 33°43' W 118°16'1 1.4
2018-Feb-22 14:28N 33°43' W 118°16'0 0.0
2018-Feb-22 13:32N 33°43' W 118°16'010.7
2018-Feb-22 13:30N 33°43' W 118°16'1 2.5
2018-Feb-22 13:00N 33°42' W 118°15'1 1.8
2018-Feb-22 12:13N 33°43' W 118°16'2 4.4
2018-Feb-22 11:48N 33°42' W 118°15'2 4.9
2018-Feb-22 11:23N 33°43' W 118°16'0 0.0
2018-Feb-22 10:59N 33°43' W 118°16'0 0.0
2018-Feb-22 09:05N 33°43' W 118°16'0 0.0
2018-Feb-22 04:12N 33°43' W 118°16'0 0.0
2018-Feb-22 02:01N 33°43' W 118°16'0 9.3
2018-Feb-22 01:59N 33°43' W 118°16'0 0.8
2018-Feb-22 01:28N 33°43' W 118°16'0 0.0
2018-Feb-22 01:00N 33°43' W 118°16'0 0.0
2018-Feb-22 00:30N 33°43' W 118°16'0 0.0
2018-Feb-22 00:00N 33°43' W 118°16'0 0.0
2018-Feb-21 23:30N 33°43' W 118°16'0 0.0
2018-Feb-21 23:00N 33°43' W 118°16'0 0.0
2018-Feb-21 22:30N 33°43' W 118°16'2 4.2
2018-Feb-21 22:00N 33°42' W 118°15'2 4.2
2018-Feb-21 21:31N 33°43' W 118°16'0 0.0
2018-Feb-21 21:00N 33°43' W 118°16'510.7
2018-Feb-21 20:30N 33°38' W 118°14'510.3
2018-Feb-21 19:59N 33°43' W 118°16'0 0.0
2018-Feb-21 19:30N 33°43' W 118°16'0 0.0
2018-Feb-21 18:58N 33°43' W 118°16'0 0.0
2018-Feb-21 18:30N 33°43' W 118°16'0 0.0
2018-Feb-21 18:00N 33°43' W 118°16'0 0.0
2018-Feb-21 17:30N 33°43' W 118°16'0 0.0
2018-Feb-21 17:00N 33°43' W 118°16'0 0.0
2018-Feb-21 16:30N 33°43' W 118°16'0 0.0
2018-Feb-21 16:00N 33°43' W 118°16'0 0.0
2018-Feb-21 15:30N 33°43' W 118°16'0 0.0
2018-Feb-21 15:00N 33°43' W 118°16'0 0.0
2018-Feb-21 14:30N 33°43' W 118°16'1 2.1
2018-Feb-21 14:00N 33°43' W 118°15'0 0.0
2018-Feb-21 13:30N 33°43' W 118°15'1 0.0
2018-Feb-21 02:20N 33°43' W 118°16'1 2.7
2018-Feb-21 02:00N 33°42' W 118°15'1 2.3
2018-Feb-21 01:30N 33°43' W 118°16'1 2.0
2018-Feb-21 01:00N 33°43' W 118°15'1 2.5
2018-Feb-21 00:30N 33°43' W 118°16'1 1.3
2018-Feb-21 00:00N 33°43' W 118°16'1 1.3
2018-Feb-20 23:30N 33°43' W 118°16'0 0.0
2018-Feb-20 23:00N 33°43' W 118°16'3 6.0
2018-Feb-20 22:31N 33°41' W 118°14'1 1.5
2018-Feb-20 22:01N 33°40' W 118°14'4 7.3
2018-Feb-20 21:30N 33°43' W 118°16'0 0.0
2018-Feb-20 21:00N 33°43' W 118°16'0 0.0
2018-Feb-20 20:29N 33°43' W 118°16'0 0.0
2018-Feb-20 20:00N 33°43' W 118°16'0 0.0
2018-Feb-20 19:30N 33°43' W 118°16'0 0.0
2018-Feb-20 19:00N 33°43' W 118°16'0 0.0
2018-Feb-20 18:30N 33°43' W 118°16'0 0.0
2018-Feb-20 18:00N 33°43' W 118°16'0 0.0
2018-Feb-20 17:30N 33°43' W 118°16'0 0.0
2018-Feb-20 17:00N 33°43' W 118°16'0 0.0
2018-Feb-20 16:30N 33°43' W 118°16'0 0.0
2018-Feb-20 16:00N 33°43' W 118°16'0 0.0
2018-Feb-20 15:30N 33°43' W 118°16'0 0.0
2018-Feb-20 15:00N 33°43' W 118°16'0 0.0
2018-Feb-20 14:30N 33°43' W 118°16'0 0.0
2018-Feb-20 13:53N 33°43' W 118°16'0 0.0
2018-Feb-20 13:30N 33°43' W 118°16'0 0.0
2018-Feb-20 13:00N 33°43' W 118°16'0 0.0
2018-Feb-20 12:22N 33°43' W 118°16'0 0.0
2018-Feb-20 02:11N 33°43' W 118°16'0 0.0
2018-Feb-20 01:48N 33°43' W 118°16'0 0.0
2018-Feb-20 01:30N 33°43' W 118°16'0 0.0
2018-Feb-20 01:00N 33°43' W 118°16'0 0.0
2018-Feb-20 00:30N 33°43' W 118°16'0 0.0
2018-Feb-20 00:00N 33°43' W 118°16'0 0.0
2018-Feb-19 23:30N 33°43' W 118°16'0 0.0
2018-Feb-19 23:00N 33°43' W 118°16'0 0.0
2018-Feb-19 22:30N 33°43' W 118°16'0 0.0
2018-Feb-19 22:00N 33°43' W 118°16'0 0.0
2018-Feb-19 21:30N 33°43' W 118°16'0 0.0
2018-Feb-19 21:00N 33°43' W 118°16'0 0.0
2018-Feb-19 20:30N 33°43' W 118°16'0 0.0
2018-Feb-19 20:00N 33°43' W 118°16'0 0.0
2018-Feb-19 19:30N 33°43' W 118°16'0 0.0
2018-Feb-19 19:00N 33°43' W 118°16'0 0.0
2018-Feb-19 18:30N 33°43' W 118°16'0 0.0
2018-Feb-19 18:00N 33°43' W 118°16'0 0.0
2018-Feb-19 17:30N 33°43' W 118°16'0 0.0
2018-Feb-19 17:00N 33°43' W 118°16'0 0.0
2018-Feb-19 16:30N 33°43' W 118°16'0 0.0
2018-Feb-19 16:00N 33°43' W 118°16'0 0.0
2018-Feb-19 15:30N 33°43' W 118°16'0 0.0
2018-Feb-19 15:00N 33°43' W 118°16'0 0.0
2018-Feb-19 14:30N 33°43' W 118°16'0 0.0
2018-Feb-19 13:54N 33°43' W 118°16'0 0.0
2018-Feb-19 12:50N 33°43' W 118°16'0 0.0
2018-Feb-19 12:26N 33°43' W 118°16'0 0.0
2018-Feb-19 11:22N 33°43' W 118°16'0 0.0
2018-Feb-19 10:49N 33°43' W 118°16'0 0.0
2018-Feb-19 10:22N 33°43' W 118°16'0 0.0
2018-Feb-19 09:53N 33°43' W 118°16'0 0.0
2018-Feb-19 09:28N 33°43' W 118°16'0 0.0
2018-Feb-19 08:58N 33°43' W 118°16'0 0.0
2018-Feb-19 08:21N 33°43' W 118°16'0 0.0
2018-Feb-19 07:31N 33°43' W 118°16'0 0.0
2018-Feb-19 07:22N 33°43' W 118°16'0 0.0
2018-Feb-19 05:52N 33°43' W 118°16'0 0.0
2018-Feb-19 05:25N 33°43' W 118°16'0 0.0
2018-Feb-19 04:57N 33°43' W 118°16'0 0.0
2018-Feb-19 04:29N 33°43' W 118°16'0 0.0
2018-Feb-19 03:50N 33°43' W 118°16'0 0.0
2018-Feb-19 03:28N 33°43' W 118°16'0 0.0
2018-Feb-19 02:29N 33°43' W 118°16'0 0.0
2018-Feb-19 01:57N 33°43' W 118°16'0 0.0
2018-Feb-19 01:30N 33°43' W 118°16'0 0.0
2018-Feb-19 01:00N 33°43' W 118°16'0 0.0
2018-Feb-19 00:30N 33°43' W 118°16'0 0.0
2018-Feb-19 00:00N 33°43' W 118°16'0 0.0
2018-Feb-18 23:30N 33°43' W 118°16'0 0.0
2018-Feb-18 23:00N 33°43' W 118°16'0 0.0
2018-Feb-18 22:30N 33°43' W 118°16'0 0.0
2018-Feb-18 22:00N 33°43' W 118°16'0 0.0
2018-Feb-18 21:30N 33°43' W 118°16'0 0.0
2018-Feb-18 21:00N 33°43' W 118°16'0 0.0
2018-Feb-18 20:30N 33°43' W 118°16'0 0.0
2018-Feb-18 20:00N 33°43' W 118°16'0 0.0
2018-Feb-18 19:30N 33°43' W 118°16'0 0.0
2018-Feb-18 19:00N 33°43' W 118°16'0 0.0
2018-Feb-18 18:30N 33°43' W 118°16'0 0.0
2018-Feb-18 18:00N 33°43' W 118°16'0 0.0
2018-Feb-18 17:30N 33°43' W 118°16'0 0.0
2018-Feb-18 17:00N 33°43' W 118°16'0 0.0
2018-Feb-18 16:30N 33°43' W 118°16'0 0.0
2018-Feb-18 16:00N 33°43' W 118°16'0 0.0
2018-Feb-18 15:30N 33°43' W 118°16'0 0.0
2018-Feb-18 15:00N 33°43' W 118°16'0 0.0
2018-Feb-18 14:30N 33°43' W 118°16'0 0.0
2018-Feb-18 14:00N 33°43' W 118°16'0 0.0
2018-Feb-18 13:26N 33°43' W 118°16'0 0.0
2018-Feb-18 13:00N 33°43' W 118°16'0 0.0
2018-Feb-18 12:26N 33°43' W 118°16'0 0.0
2018-Feb-18 11:57N 33°43' W 118°16'0 0.0
2018-Feb-18 11:28N 33°43' W 118°16'0 0.0
2018-Feb-18 10:46N 33°43' W 118°16'0 0.0
2018-Feb-18 10:10N 33°43' W 118°16'0 0.0
2018-Feb-18 09:54N 33°43' W 118°16'0 0.0
2018-Feb-18 09:19N 33°43' W 118°16'0 0.0
2018-Feb-18 08:47N 33°43' W 118°16'0 0.0
2018-Feb-18 08:19N 33°43' W 118°16'0 0.0
2018-Feb-18 08:00N 33°43' W 118°16'0 0.0
2018-Feb-18 06:01N 33°43' W 118°16'0 0.0
2018-Feb-18 05:42N 33°43' W 118°16'0 0.0
2018-Feb-18 05:20N 33°43' W 118°16'0 0.0
2018-Feb-18 04:15N 33°43' W 118°16'0 0.0
2018-Feb-18 03:58N 33°43' W 118°16'0 0.0
2018-Feb-18 01:52N 33°43' W 118°16'0 0.0
2018-Feb-18 01:30N 33°43' W 118°16'0 0.0
2018-Feb-18 01:00N 33°43' W 118°16'0 0.0
2018-Feb-18 00:30N 33°43' W 118°16'0 0.0
2018-Feb-17 23:59N 33°43' W 118°16'0 0.0
2018-Feb-17 23:30N 33°43' W 118°16'0 0.0
2018-Feb-17 23:00N 33°43' W 118°16'0 0.0
2018-Feb-17 22:30N 33°43' W 118°16'0 0.0
2018-Feb-17 22:00N 33°43' W 118°16'0 0.0
2018-Feb-17 21:30N 33°43' W 118°16'0 0.0
2018-Feb-17 21:00N 33°43' W 118°16'0 0.0
2018-Feb-17 20:30N 33°43' W 118°16'0 0.0
2018-Feb-17 20:00N 33°43' W 118°16'0 0.0
2018-Feb-17 19:30N 33°43' W 118°16'0 0.0
2018-Feb-17 19:00N 33°43' W 118°16'0 0.0
2018-Feb-17 18:30N 33°43' W 118°16'0 0.0
2018-Feb-17 18:00N 33°43' W 118°16'0 0.0
2018-Feb-17 17:30N 33°43' W 118°16'0 0.0
2018-Feb-17 17:00N 33°43' W 118°16'0 0.0
2018-Feb-17 16:30N 33°43' W 118°16'0 0.0
2018-Feb-17 16:00N 33°43' W 118°16'0 0.0
2018-Feb-17 15:30N 33°43' W 118°16'0 0.0
2018-Feb-17 15:00N 33°43' W 118°16'0 0.0
2018-Feb-17 14:30N 33°43' W 118°16'0 0.0
2018-Feb-17 13:51N 33°43' W 118°16'0 0.0
2018-Feb-17 13:22N 33°43' W 118°16'0 0.0
2018-Feb-17 12:58N 33°43' W 118°16'0 0.0
2018-Feb-17 12:18N 33°43' W 118°16'0 0.0
2018-Feb-17 11:52N 33°43' W 118°16'0 0.0
2018-Feb-17 11:30N 33°43' W 118°16'0 0.0
2018-Feb-17 10:45N 33°43' W 118°16'0 0.0
2018-Feb-17 10:26N 33°43' W 118°16'0 0.0
2018-Feb-17 09:47N 33°43' W 118°16'0 0.0
2018-Feb-17 09:30N 33°43' W 118°16'0 0.0
2018-Feb-17 09:00N 33°43' W 118°16'0 0.0
2018-Feb-17 05:50N 33°43' W 118°16'0 0.0
2018-Feb-17 01:50N 33°43' W 118°16'0 0.0
2018-Feb-17 01:30N 33°43' W 118°16'0 0.0
2018-Feb-17 01:00N 33°43' W 118°16'0 0.0
2018-Feb-17 00:30N 33°43' W 118°16'0 0.0
2018-Feb-17 00:00N 33°43' W 118°16'0 0.0
2018-Feb-16 23:30N 33°43' W 118°16'0 0.0
2018-Feb-16 23:00N 33°43' W 118°16'0 0.0
2018-Feb-16 22:30N 33°43' W 118°16'0 0.0
2018-Feb-16 22:00N 33°43' W 118°16'0 0.0
2018-Feb-16 21:30N 33°43' W 118°16'0 0.0
2018-Feb-16 21:00N 33°43' W 118°16'0 0.0
2018-Feb-16 20:30N 33°43' W 118°16'0 0.0
2018-Feb-16 20:00N 33°43' W 118°16'0 0.0
2018-Feb-16 19:30N 33°43' W 118°16'0 0.0
2018-Feb-16 19:00N 33°43' W 118°16'0 0.0
2018-Feb-16 18:30N 33°43' W 118°16'0 0.0
2018-Feb-16 18:00N 33°43' W 118°16'0 0.0
2018-Feb-16 17:30N 33°43' W 118°16'0 0.0
2018-Feb-16 17:00N 33°43' W 118°16'0 0.0
2018-Feb-16 16:30N 33°43' W 118°16'0 0.0
2018-Feb-16 16:00N 33°43' W 118°16'0 0.0
2018-Feb-16 15:30N 33°43' W 118°16'0 0.0
2018-Feb-16 15:00N 33°43' W 118°16'0 0.0
2018-Feb-16 14:30N 33°43' W 118°16'0 0.0
2018-Feb-16 13:41N 33°43' W 118°16'0 0.0
2018-Feb-16 06:43N 33°43' W 118°16'0 0.0
2018-Feb-16 06:15N 33°43' W 118°16'0 0.0
2018-Feb-16 05:54N 33°43' W 118°16'0 0.0
2018-Feb-16 05:30N 33°43' W 118°16'0 0.0
2018-Feb-16 04:52N 33°43' W 118°16'0 0.0
2018-Feb-16 04:30N 33°43' W 118°16'0 0.0
2018-Feb-16 04:00N 33°43' W 118°16'0 0.0
2018-Feb-16 03:12N 33°43' W 118°16'0 0.0
2018-Feb-16 02:59N 33°43' W 118°16'0 0.0
2018-Feb-16 02:27N 33°43' W 118°16'0 0.0
2018-Feb-16 01:48N 33°43' W 118°16'0 0.0
2018-Feb-16 01:30N 33°43' W 118°16'0 0.0
2018-Feb-16 01:00N 33°43' W 118°16'0 0.0
2018-Feb-16 00:30N 33°43' W 118°16'0 0.0
2018-Feb-16 00:00N 33°43' W 118°16'0 0.0
2018-Feb-15 23:30N 33°43' W 118°16'0 0.0
2018-Feb-15 23:00N 33°43' W 118°16'0 0.0
2018-Feb-15 22:30N 33°43' W 118°16'0 0.0
2018-Feb-15 22:00N 33°43' W 118°16'0 0.0
2018-Feb-15 21:30N 33°43' W 118°16'0 0.0
2018-Feb-15 21:00N 33°43' W 118°16'0 0.0
2018-Feb-15 20:30N 33°43' W 118°16'0 0.0
2018-Feb-15 20:00N 33°43' W 118°16'0 0.0
2018-Feb-15 19:30N 33°43' W 118°16'0 0.0
2018-Feb-15 19:00N 33°43' W 118°16'0 0.0
2018-Feb-15 18:28N 33°43' W 118°16'0 0.0
2018-Feb-15 18:00N 33°43' W 118°16'0 0.0
2018-Feb-15 17:30N 33°43' W 118°16'0 0.0
2018-Feb-15 17:00N 33°43' W 118°16'0 0.0
2018-Feb-15 16:30N 33°43' W 118°16'0 0.0
2018-Feb-15 15:59N 33°43' W 118°16'0 0.0
2018-Feb-15 15:30N 33°43' W 118°16'0 0.0
2018-Feb-15 15:00N 33°43' W 118°16'0 0.0
2018-Feb-15 14:30N 33°43' W 118°16'0 0.0
2018-Feb-15 14:00N 33°43' W 118°16'0 0.0
2018-Feb-15 13:30N 33°43' W 118°16'0 0.0
2018-Feb-15 12:56N 33°43' W 118°16'0 0.0
2018-Feb-15 12:21N 33°43' W 118°16'0 0.0
2018-Feb-15 12:00N 33°43' W 118°16'0 0.0
2018-Feb-15 11:28N 33°43' W 118°16'0 0.0
2018-Feb-15 10:58N 33°43' W 118°16'0 0.0
2018-Feb-15 09:45N 33°43' W 118°16'0 0.0
2018-Feb-15 09:27N 33°43' W 118°16'0 0.0
2018-Feb-15 08:57N 33°43' W 118°16'0 0.0
2018-Feb-15 08:30N 33°43' W 118°16'0 0.0
2018-Feb-15 07:51N 33°43' W 118°16'0 0.0
2018-Feb-15 07:30N 33°43' W 118°16'0 0.0
2018-Feb-15 06:03N 33°43' W 118°16'0 0.1
2018-Feb-15 06:00N 33°43' W 118°16'0 0.0
2018-Feb-15 05:29N 33°43' W 118°16'0 0.0
2018-Feb-15 04:58N 33°43' W 118°16'0 0.0
2018-Feb-15 04:30N 33°43' W 118°16'0 0.0
2018-Feb-15 04:00N 33°43' W 118°16'0 0.0
2018-Feb-15 02:56N 33°43' W 118°16'0 0.0
2018-Feb-15 02:07N 33°43' W 118°16'0 0.0
2018-Feb-15 01:48N 33°43' W 118°16'0 0.0
2018-Feb-15 01:30N 33°43' W 118°16'0 0.0
2018-Feb-15 01:00N 33°43' W 118°16'0 0.0
2018-Feb-15 00:30N 33°43' W 118°16'0 0.0
2018-Feb-15 00:00N 33°43' W 118°16'0 0.0
2018-Feb-14 23:30N 33°43' W 118°16'0 0.0
2018-Feb-14 23:00N 33°43' W 118°16'0 0.0
2018-Feb-14 22:30N 33°43' W 118°16'0 0.0
2018-Feb-14 22:00N 33°43' W 118°16'0 0.0
2018-Feb-14 21:30N 33°43' W 118°16'0 0.0
2018-Feb-14 21:00N 33°43' W 118°16'0 0.0
2018-Feb-14 20:30N 33°43' W 118°16'0 0.0
2018-Feb-14 20:00N 33°43' W 118°16'0 0.0
2018-Feb-14 19:30N 33°43' W 118°16'0 0.0
2018-Feb-14 19:00N 33°43' W 118°16'0 0.0
2018-Feb-14 18:30N 33°43' W 118°16'0 0.0
2018-Feb-14 18:00N 33°43' W 118°16'0 0.0
2018-Feb-14 17:30N 33°43' W 118°16'0 0.0
2018-Feb-14 17:00N 33°43' W 118°16'0 0.0
2018-Feb-14 16:30N 33°43' W 118°16'0 0.0
2018-Feb-14 16:00N 33°43' W 118°16'0 0.0
2018-Feb-14 15:30N 33°43' W 118°16'0 0.0
2018-Feb-14 15:00N 33°43' W 118°16'0 0.0
2018-Feb-14 14:30N 33°43' W 118°16'0 0.0
2018-Feb-14 13:57N 33°43' W 118°16'0 0.0
2018-Feb-14 13:30N 33°43' W 118°16'0 0.0
2018-Feb-14 13:00N 33°43' W 118°16'0 0.0
2018-Feb-14 12:20N 33°43' W 118°16'0 0.0
2018-Feb-14 11:57N 33°43' W 118°16'0 0.0
2018-Feb-14 11:30N 33°43' W 118°16'0 0.0
2018-Feb-14 10:47N 33°43' W 118°16'0 0.0
2018-Feb-14 10:28N 33°43' W 118°16'0 0.0
2018-Feb-14 09:58N 33°43' W 118°16'0 0.0
2018-Feb-14 06:57N 33°43' W 118°16'0 0.0
2018-Feb-14 05:31N 33°43' W 118°16'0 0.0
2018-Feb-14 05:29N 33°43' W 118°16'0 0.0
2018-Feb-14 04:47N 33°43' W 118°16'0 0.0
2018-Feb-14 04:22N 33°43' W 118°16'0 0.0
2018-Feb-14 03:56N 33°43' W 118°16'0 0.0
2018-Feb-14 03:28N 33°43' W 118°16'0 0.0
2018-Feb-14 02:27N 33°43' W 118°16'0 0.0
2018-Feb-14 02:00N 33°43' W 118°16'0 0.0
2018-Feb-14 01:30N 33°43' W 118°16'0 0.0
2018-Feb-14 01:00N 33°43' W 118°16'0 0.0
2018-Feb-14 00:30N 33°43' W 118°16'0 0.0
2018-Feb-14 00:00N 33°43' W 118°16'0 0.0
2018-Feb-13 23:30N 33°43' W 118°16'3 5.1
2018-Feb-13 23:00N 33°41' W 118°14'3 5.1
2018-Feb-13 22:30N 33°39' W 118°13'5 9.4
2018-Feb-13 22:00N 33°43' W 118°16'1 1.1
2018-Feb-13 21:30N 33°43' W 118°16'0 0.0
2018-Feb-13 21:00N 33°43' W 118°16'0 0.0
2018-Feb-13 20:29N 33°43' W 118°16'0 0.0
2018-Feb-13 20:00N 33°43' W 118°16'0 0.0
2018-Feb-13 19:30N 33°43' W 118°16'0 0.0
2018-Feb-13 19:00N 33°43' W 118°16'0 0.0
2018-Feb-13 18:30N 33°43' W 118°16'0 0.0
2018-Feb-13 18:00N 33°43' W 118°16'0 0.0
2018-Feb-13 17:30N 33°43' W 118°16'0 0.0
2018-Feb-13 17:00N 33°43' W 118°16'0 0.0
2018-Feb-13 16:30N 33°43' W 118°16'0 0.0
2018-Feb-13 16:01N 33°43' W 118°16'0 0.0
2018-Feb-13 15:27N 33°43' W 118°16'0 0.0
2018-Feb-13 15:01N 33°43' W 118°16'0 0.0
2018-Feb-13 14:27N 33°43' W 118°16'0 0.0
2018-Feb-13 14:00N 33°43' W 118°16'0 0.0
2018-Feb-13 13:29N 33°43' W 118°16'0 0.0
2018-Feb-13 13:00N 33°43' W 118°16'0 0.0
2018-Feb-13 12:28N 33°43' W 118°16'0 0.0
2018-Feb-13 12:01N 33°43' W 118°16'0 0.0
2018-Feb-13 11:30N 33°43' W 118°16'0 0.0
2018-Feb-13 11:00N 33°43' W 118°16'0 0.0
2018-Feb-13 10:30N 33°43' W 118°16'0 0.0
2018-Feb-13 10:00N 33°43' W 118°16'0 0.0
2018-Feb-13 09:28N 33°43' W 118°16'0 0.0
2018-Feb-13 08:01N 33°43' W 118°16'0 0.0
2018-Feb-13 07:58N 33°43' W 118°16'0 0.0
2018-Feb-13 07:09N 33°43' W 118°16'0 0.0
2018-Feb-13 07:01N 33°43' W 118°16'0 0.0
2018-Feb-13 06:30N 33°43' W 118°16'0 0.0
2018-Feb-13 06:00N 33°43' W 118°16'0 0.0
2018-Feb-13 05:30N 33°43' W 118°16'0 0.0
2018-Feb-13 04:59N 33°43' W 118°16'0 0.0
2018-Feb-13 04:30N 33°43' W 118°16'0 0.0
2018-Feb-13 03:59N 33°43' W 118°16'0 0.0
2018-Feb-13 03:29N 33°43' W 118°16'0 0.0
2018-Feb-13 02:52N 33°43' W 118°16'0 0.0
2018-Feb-13 02:31N 33°43' W 118°16'0 0.0
2018-Feb-13 01:57N 33°43' W 118°16'0 0.0
2018-Feb-13 01:29N 33°43' W 118°16'0 0.0
2018-Feb-13 01:00N 33°43' W 118°16'0 0.0
2018-Feb-13 00:30N 33°43' W 118°16'0 0.0
2018-Feb-13 00:01N 33°43' W 118°16'1 3.0
2018-Feb-12 23:30N 33°42' W 118°15'1 3.0
2018-Feb-12 23:00N 33°43' W 118°16'3 5.4
2018-Feb-12 22:23N 33°40' W 118°14'2 4.6
2018-Feb-12 22:00N 33°42' W 118°15'  

Dump ship's entire track history